529  
ASUS41 KBTV 202010  
RWRBTV  
VERMONT REGIONAL WEATHER ROUNDUP  
NATIONAL WEATHER SERVICE BURLINGTON VT  
400 PM EDT THU JUL 20 2017  
 
NOTE: "FAIR" INDICATES FEW OR NO CLOUDS BELOW 12,000 FEET WITH NO  
SIGNIFICANT WEATHER AND/OR S TO VISIBILITY
.  
 
* THESE REPORTS ARE NOT UNDER NWS QUALITY CONTROL AND/OR DO NOT  
REPORT WEATHER SUCH AS PRECIPITATION AND FOG.
 
 
VTZ001>019-202100-  
_____VERMONT_____  
 
 
CITY SKY/WX TMP DP RH WIND PRES REMARKS
 
BURLINGTON CLOUDY 85 62 46 W7 29.84F  
MONTPELIER CLOUDY 79 64 60 W6 29.93F  
MORRISVILLE PTSUNNY 80 59 48 VRB7 29.88F  
ST. JOHNSBURY* N/A 83 60 45 MISG 29.85F  
LYNDONVILLE* FAIR 81 60 48 SW5 29.90F  
MIDDLEBURY* FAIR 82 58 45 S5 29.88F  
RUTLAND* CLOUDY 77 71 82 CALM 29.91S  
SPRINGFIELD CLOUDY 83 64 52 W7 29.88F  
HIGHGATE* FAIR 79 70 75 CALM 29.84F  
NEWPORT* FAIR 79 63 58 S3 29.90S  
BENNINGTON CLOUDY 81 68 64 VRB3 29.93S  
 
_____LAKE CHAMPLAIN_____  
 
 
CITY SKY/WX TMP DP RH WIND PRES REMARKS
 
 

 
 
NYZ007-026>031-035-052-083-087-202100-  
_____NORTHERN NEW YORK_____  
 
 
CITY SKY/WX TMP DP RH WIND PRES REMARKS
 
PLATTSBURGH CLOUDY 83 61 47 VRB5 29.84F  
SARANAC LAKE CLOUDY 73 59 61 W10G21 29.92F  
MASSENA PTSUNNY 81 69 67 SW10 29.87F  
OGDENSBURG* FAIR 80 65 61 SW10 29.88S  
WATERTOWN MOSUNNY 75 60 59 N7 29.90R  
FT DRUM CLOUDY 74 58 58 NW6 29.91F  
ALBANY CLOUDY 83 65 54 NW13 29.91R  
GLENS FALLS CLOUDY 81 65 58 W3 29.90R  
 

 
NHZ002-005-011-202100-  
_____NEW HAMPSHIRE_____  
 
 
CITY SKY/WX TMP DP RH WIND PRES REMARKS
 
LEBANON LGT RAIN 74 69 85 NE6 29.89R  
KEENE CLOUDY 85 64 49 NW5 29.89R  
MT WASHINGTON CLOUDY 57 50 77 W29 N/A  
PLYMOUTH FAIR 82 63 52 W5 29.86S  
WHITEFIELD CLOUDY 82 59 45 VRB5 29.88F  
 

 
 
_____REGIONAL QUEBEC LOCATIONS_____  
 
 
CITY SKY/WX TMP DP RH WIND PRES REMARKS
 
MONTREAL TSTM 66 64 94 SW10 29.86R  
QUEBEC CITY PTSUNNY 79 64 61 W12 29.81F  
SHERBROOKE MOSUNNY 79 63 57 W6 29.86S  
 
_____REGIONAL ONTARIO LOCATIONS_____  
 
 
CITY SKY/WX TMP DP RH WIND PRES REMARKS
 
OTTAWA MOSUNNY 82 64 54 SW13 29.84F  
 
______KEY______  
VSB - VISIBILITY IN MILES  
WCI - WIND CHILL INDEX  
HX - HEAT INDEX  

 
NNNN  
 
 
CLICK HERE TO GO TO PREVIOUS BULLETINS.

The Nexlab VT Page
The Nexlab NY Page Main Text Page